Temperature
13 14 14 14 14 14 13 13 13 13 13 14 14 13 14 14 14 14 14 14 14 15 15 14 14 14 14 14 14 14 14 13 13 13 13 13 13 12 12 12 12 12 12 12
13 13 13 13 14 14 14 13 13 13 13 13 14 14 13 13 13 14 14 14 14 14 14 14 14 14 14 14 13 13 13 13 13 13 13 12 12 12 12 12 12 11 11 11
11 12 13 13 13 14 14 13 13 13 13 13 12 12 13 13 13 14 14 14 14 14 14 14 14 14 14 13 13 13 13 13 13 12 12 12 12 12 12 11 11 11 11 11
10 12 12 13 13 13 13 13 13 13 13 13 13 13 14 14 14 14 14 14 14 14 14 14 14 13 13 13 13 13 13 12 12 12 12 12 12 11 11 11 11 11 11 11
9 11 11 12 13 13 13 13 13 12 13 13 13 12 13 14 14 14 14 14 13 13 13 13 13 13 13 13 13 12 12 12 12 12 12 12 11 11 11 11 11 11 10 10
9 11 11 12 13 13 13 13 12 12 12 12 12 11 12 14 13 13 13 13 13 13 13 13 13 13 12 12 12 12 12 12 12 11 11 11 11 11 11 11 10 10 10 10
9 10 10 11 12 13 12 12 13 13 12 12 11 12 13 13 13 13 13 13 13 13 13 13 12 12 12 12 12 12 12 11 11 11 11 11 11 11 10 10 10 10 10 9
8 9 10 12 12 12 12 12 13 13 13 12 12 13 13 13 13 13 12 12 12 12 12 12 12 12 11 11 11 11 11 11 11 11 11 10 10 10 10 10 10 9 9 9
9 10 11 11 12 12 13 12 13 13 12 12 12 12 12 12 12 12 12 12 12 12 12 12 11 11 11 11 11 11 10 11 11 11 10 10 10 10 10 9 9 9 9 9
8 9 10 11 12 12 12 12 12 12 12 12 12 12 12 11 11 11 11 11 11 11 11 11 11 11 11 10 10 10 10 10 10 10 10 10 10 9 9 9 9 9 9 8
8 8 10 11 12 12 12 12 12 12 12 12 12 11 11 11 11 11 11 11 11 11 11 11 10 10 10 10 10 10 9 10 10 10 10 9 9 9 9 9 9 8 8 8
8 9 9 10 12 12 11 11 11 11 11 11 11 11 11 11 11 10 10 10 10 10 10 10 10 10 10 9 9 9 9 9 9 9 9 9 9 8 8 8 8 8 8 8
11 11 11 11 11 11 11 11 11 11 11 11 11 11 10 10 10 10 10 10 10 10 10 10 9 9 9 9 9 9 9 9 9 9 9 9 8 8 8 8 8 8 7 7
10 10 10 10 10 10 10 10 10 10 10 10 10 10 10 10 10 10 10 10 9 9 9 9 9 9 9 8 8 8 8 8 8 8 8 8 8 8 8 8 7 7 7 7
10 10 10 10 10 10 10 10 10 10 10 10 10 10 10 10 10 10 10 9 9 9 9 9 9 8 8 8 8 8 8 8 8 8 8 7 7 7 7 7 7 7 7 7
9 9 10 10 10 10 10 10 9 9 9 9 9 9 9 9 9 9 9 9 9 8 8 8 8 8 8 8 7 7 7 7 7 7 7 7 7 7 7 6 6 6 6 6
9 9 9 9 9 9 9 9 9 9 9 9 9 9 9 9 9 9 8 8 8 8 8 8 8 7 7 7 7 7 7 7 7 7 7 7 6 6 6 6 6 6 6 6
9 9 9 9 9 9 9 9 9 9 9 9 9 8 8 8 8 8 8 8 8 8 8 7 7 7 7 7 7 7 7 7 7 6 6 6 6 6 6 6 5 5 5 5
8 8 8 8 8 8 8 8 8 8 8 8 8 8 8 8 8 7 7 7 7 7 7 7 7 7 7 7 6 6 6 6 6 6 6 6 6 6 5 5 5 5 5 5
8 8 8 8 8 8 8 8 8 8 8 8 8 8 7 7 7 7 7 7 7 7 7 6 6 6 6 6 6 6 6 6 5 5 5 5 5 5 5 5 5 4 4 4
8 8 8 7 7 7 7 7 7 7 7 7 7 7 7 7 7 6 6 6 7 6 6 6 6 6 6 5 5 5 5 5 5 5 5 5 5 5 4 4 4 4 4 4
7 7 7 7 7 7 7 7 7 7 7 7 7 7 6 6 6 6 6 6 6 6 6 6 5 5 5 5 5 5 5 4 4 4 4 4 4 4 4 4 4 4 3 3
7 7 7 7 7 6 6 6 6 6 6 6 6 6 6 6 6 6 6 6 5 5 5 5 5 5 5 4 4 4 4 4 4 4 4 4 4 4 3 3 3 3 3 3
6 6 6 6 6 6 6 6 6 6 6 6 6 6 5 5 5 5 5 5 5 5 5 5 4 4 4 4 4 4 4 3 3 3 3 3 3 3 3 3 3 3 2 2
6 6 6 6 6 5 5 5 5 5 5 5 5 5 5 5 5 5 5 5 4 4 4 4 4 4 3 3 3 3 3 3 3 3 3 3 3 2 2 2 2 2 2 2
5 5 5 5 5 5 5 5 5 5 5 5 4 4 4 4 4 4 4 4 4 4 3 3 3 3 3 3 3 3 3 2 2 2 2 2 2 2 2 2 2 2 1 1
5 5 5 5 5 5 4 4 4 4 4 4 4 4 4 4 4 4 4 3 3 3 3 3 3 3 2 2 2 2 2 2 2 2 2 2 1 1 1 1 1 1 1 1
Wind_Speed
4 4 3 3 4 4 5 7 7 7 7 8 7 5 4 2 1 1 2 2 3 3 2 3 3 3 2 2 3 4 4 4 4 3 3 3 3 3 3 3 4 4 3 2
2 2 2 4 6 6 6 6 6 5 7 6 4 1 2 2 2 3 3 3 3 3 3 4 4 4 3 3 3 4 4 4 3 3 3 3 3 3 3 3 3 3 3 3
3 4 3 6 6 5 4 4 6 7 7 3 2 3 4 4 3 4 4 3 3 4 4 4 5 5 5 4 3 4 4 3 3 3 3 3 3 3 3 3 3 3 3 3
1 1 5 6 2 3 4 4 3 3 3 3 4 4 3 3 4 4 3 3 3 3 3 2 3 3 3 3 4 4 3 3 3 4 4 3 3 3 3 3 3 3 3 3
3 3 6 6 3 2 3 4 3 4 4 2 0 2 2 2 2 3 3 3 3 3 2 2 2 3 4 3 4 4 4 4 4 4 4 4 4 4 3 3 3 3 3 3
3 3 5 5 3 2 2 4 3 3 4 2 3 0 4 3 2 2 2 1 1 1 1 1 1 3 4 3 4 5 5 5 4 4 5 5 5 4 3 3 4 3 2 3
4 4 6 6 4 1 3 5 3 3 3 4 4 5 4 2 1 1 1 1 0 0 1 2 2 3 4 3 5 5 4 4 3 4 5 4 3 3 3 3 2 2 3 2
5 4 7 3 1 4 5 3 2 2 3 3 3 2 1 1 1 1 1 1 0 1 1 1 2 4 4 4 5 3 3 3 3 3 4 3 3 3 3 3 3 3 2 2
6 6 4 3 3 3 2 2 3 2 2 2 2 2 2 1 1 1 2 2 2 2 1 1 1 4 4 4 2 2 3 3 3 3 3 3 4 3 2 3 3 3 3 3
3 5 5 5 4 3 2 3 3 2 2 3 2 2 2 2 2 2 2 2 1 2 1 1 2 2 4 3 2 3 3 3 3 3 3 3 3 3 3 4 4 3 3 3
4 6 6 5 4 4 3 2 1 1 1 2 2 2 2 2 2 2 2 1 1 2 2 3 2 2 2 2 3 3 4 3 3 3 3 3 3 3 4 5 5 5 5 4
6 7 5 6 6 4 3 3 3 2 2 1 2 3 2 2 3 2 2 1 2 2 2 2 1 1 1 2 3 3 3 3 3 3 3 3 3 1 2 3 4 4 4 4
7 5 5 6 5 4 4 4 3 3 2 2 2 2 2 2 2 2 2 2 2 3 2 2 1 1 2 2 2 3 3 3 3 3 3 3 3 3 2 2 1 2 3 3
5 3 4 5 5 5 4 4 2 2 2 1 1 1 1 1 1 1 2 3 2 2 2 2 1 2 2 1 2 2 2 3 3 3 3 3 4 4 4 3 3 2 2 3
6 6 6 5 5 5 4 2 1 2 1 1 1 1 1 2 2 3 3 2 1 1 1 1 1 2 2 1 2 2 2 2 3 2 3 3 3 3 3 4 3 3 2 2
4 3 3 4 4 4 3 3 3 3 2 2 2 2 2 2 2 2 1 1 2 2 2 2 3 3 2 2 2 2 2 3 2 2 2 3 3 3 3 4 3 3 3 3
2 2 3 4 4 4 4 4 4 4 3 3 3 2 1 1 1 1 2 2 2 2 3 3 4 3 2 2 2 2 2 2 2 2 2 3 4 4 4 4 4 4 4 3
4 5 5 5 4 4 4 3 3 3 3 3 2 1 1 2 3 3 3 1 1 1 2 3 3 2 2 2 2 2 2 2 2 2 2 3 4 4 4 4 4 4 3 3
2 2 3 3 3 3 3 3 3 3 3 2 2 2 2 3 3 3 2 1 1 3 4 3 3 2 2 2 1 1 2 2 2 2 2 3 2 3 4 4 4 4 4 3
2 2 2 2 1 1 2 3 2 2 2 2 2 2 3 3 3 2 2 3 4 4 3 2 2 1 2 2 1 1 2 2 2 2 2 2 2 3 3 3 4 4 4 4
3 2 2 2 2 2 2 2 2 3 3 2 2 3 3 3 2 1 1 3 4 2 2 2 1 2 2 2 1 1 1 2 2 2 2 2 2 2 3 3 3 3 3 3
2 2 2 2 2 3 3 3 2 2 2 2 2 2 2 2 2 2 2 2 3 2 1 1 1 3 2 1 1 1 1 2 2 2 2 2 2 2 2 3 3 3 3 3
3 3 3 3 3 3 4 4 3 2 3 3 3 3 3 3 2 2 3 2 1 2 1 1 3 3 2 0 1 1 1 1 2 2 2 2 2 3 3 3 3 3 3 3
3 3 3 3 2 2 4 5 4 3 3 3 3 3 3 2 2 2 2 2 2 2 1 2 3 2 1 1 0 1 1 1 1 2 2 2 2 2 2 2 2 3 3 3
3 3 3 3 3 3 4 4 3 3 2 2 2 2 1 2 2 1 1 1 2 1 1 2 2 2 1 0 0 1 1 1 2 2 1 2 2 2 2 2 2 3 3 3
3 3 4 4 4 4 3 2 2 2 2 2 2 2 1 1 0 0 0 1 1 1 1 1 1 1 1 0 1 1 1 2 2 2 2 2 2 2 2 2 3 3 3 3
3 3 3 3 3 3 3 3 3 3 3 3 2 2 1 1 0 0 1 0 1 0 0 1 1 1 1 1 1 1 1 1 1 1 1 2 2 2 2 3 2 2 2 2
Wind_Direction
228 243 228 251 256 221 198 198 199 222 223 249 252 243 245 245 218 201 234 215 206 208 213 208 205 204 202 200 182 171 169 180 195 199 194 184 181 182 176 173 177 174 168 176
262 255 263 275 264 244 232 214 216 230 251 255 257 219 239 235 210 215 234 234 230 218 213 209 206 201 195 199 191 173 179 192 188 177 177 177 179 178 170 171 168 159 171 179
260 303 336 277 251 223 220 211 193 217 239 253 250 231 230 223 210 218 226 234 226 217 218 219 210 197 193 199 185 171 182 189 181 176 178 187 175 162 172 176 170 176 188 187
201 46 242 250 264 214 224 250 217 212 234 232 239 234 223 206 200 223 236 238 236 223 226 228 207 186 178 172 169 173 182 191 186 178 183 185 171 177 180 173 182 192 201 206
155 211 271 291 282 200 202 259 231 223 242 257 66 35 309 252 216 223 229 236 239 224 220 206 190 175 158 164 166 173 193 203 197 184 184 186 191 198 193 183 195 199 196 204
158 193 239 256 286 284 139 270 275 224 225 198 117 197 267 265 250 262 262 255 257 220 168 184 198 160 150 170 180 196 207 210 198 186 189 198 206 208 201 191 199 198 209 215
188 223 262 267 289 91 164 257 275 222 218 194 201 221 237 243 243 234 244 273 281 159 201 217 181 153 164 184 212 217 204 192 190 190 194 199 203 204 194 190 186 199 218 235
174 210 254 278 150 176 225 263 263 246 217 212 234 243 220 217 218 234 251 272 243 205 252 252 178 165 185 217 231 214 186 185 194 196 197 194 187 198 189 182 186 201 210 244
193 214 245 265 240 254 223 239 253 232 227 202 209 243 245 232 226 237 233 239 231 196 221 274 223 182 200 229 224 197 180 189 197 195 192 185 183 184 183 184 190 203 206 224
246 265 276 286 279 280 258 242 249 223 192 179 206 231 236 230 238 244 255 243 229 178 195 257 258 222 213 216 194 183 194 197 191 183 186 185 185 183 186 195 200 203 212 226
256 277 297 294 279 278 293 280 272 293 232 206 200 236 231 229 240 243 256 257 204 194 217 244 251 244 235 201 176 185 200 201 196 192 188 191 198 206 205 210 203 201 211 210
237 242 229 262 278 282 272 271 266 270 296 287 211 216 236 241 248 237 236 222 209 212 219 240 235 239 241 202 174 179 196 200 199 196 198 194 195 231 249 225 225 220 211 209
237 250 244 268 278 277 261 264 267 253 237 263 269 225 226 244 246 229 215 203 208 216 223 223 204 234 241 205 180 189 201 206 203 199 203 203 200 198 224 276 244 225 224 228
245 245 266 263 265 273 267 271 272 272 270 254 254 279 262 254 246 231 226 221 218 216 218 209 199 245 249 205 194 212 219 224 213 210 210 210 212 211 206 209 229 257 261 251
253 238 237 255 268 274 269 254 251 270 283 298 270 259 257 247 246 245 242 220 191 194 224 216 239 267 264 207 204 218 222 229 221 216 212 208 209 210 209 208 217 234 255 270
265 273 254 255 260 264 261 233 226 248 255 260 265 268 266 251 246 253 250 195 174 211 236 235 252 265 250 218 216 228 237 247 236 217 217 209 205 207 211 213 217 221 230 236
218 258 265 271 267 265 257 244 232 240 244 239 250 260 266 247 233 247 252 242 218 232 235 235 252 259 237 215 207 223 230 239 244 231 223 223 215 214 215 215 220 227 233 232
228 234 233 231 234 246 257 257 251 243 239 248 254 225 220 222 231 245 255 271 308 305 284 268 263 257 251 237 212 209 210 228 229 231 235 237 233 219 216 219 222 226 234 234
293 280 278 253 232 226 238 251 259 258 255 240 227 239 245 245 242 244 243 235 254 275 285 287 287 276 264 255 220 192 205 229 244 248 244 247 245 229 218 219 224 226 223 218
318 308 304 303 289 236 242 257 262 271 266 243 239 258 269 271 260 241 232 240 245 246 255 273 288 280 266 253 229 191 206 218 233 244 243 235 239 241 233 226 222 224 226 222
318 314 311 306 309 306 279 261 251 262 274 260 237 244 257 273 268 223 217 268 281 275 264 277 286 272 260 252 226 198 212 225 230 233 237 240 247 246 241 238 233 232 231 230
309 309 304 304 310 312 313 308 283 274 283 282 269 253 256 274 267 256 253 251 268 287 295 274 273 278 278 253 190 207 220 231 238 237 237 237 235 238 244 248 243 240 236 232
293 293 294 290 286 294 308 305 292 276 266 258 248 241 238 243 229 220 271 286 274 288 317 273 285 293 298 96 184 214 233 239 239 236 237 237 236 238 242 249 253 247 239 236
286 288 288 290 294 295 299 300 297 286 273 263 253 240 227 235 258 250 246 279 294 295 291 281 298 316 351 51 210 245 258 261 256 250 250 250 251 250 251 252 260 259 247 240
274 279 283 283 279 274 276 290 301 295 289 285 285 282 261 215 213 250 267 263 274 300 314 295 308 341 16 19 306 281 277 271 270 267 253 258 262 261 258 256 255 261 262 255
270 271 269 262 261 266 269 267 266 269 270 277 285 289 290 276 217 214 235 243 234 288 315 303 308 329 337 299 285 283 283 292 297 293 281 274 270 267 264 263 265 263 263 261
282 281 284 292 288 275 264 253 246 248 241 234 250 259 252 257 249 246 238 239 241 246 266 280 291 290 292 292 284 281 283 283 279 273 272 273 273 272 272 271 271 271 270 274
Height
1493 1490 1490 1490 1488 1488 1491 1494 1499 1495 1493 1486 1482 1481 1481 1481 1481 1482 1482 1483 1483 1484 1485 1486 1487 1488 1489 1490 1491 1492 1494 1495 1495 1496 1497 1498 1498 1499 1500 1501 1502 1503 1504 1504
1492 1489 1489 1489 1486 1486 1486 1487 1489 1488 1487 1480 1479 1479 1480 1480 1480 1480 1481 1481 1482 1482 1483 1483 1484 1485 1486 1487 1489 1490 1491 1492 1493 1493 1494 1495 1496 1497 1497 1498 1499 1500 1501 1501
1498 1492 1490 1492 1484 1482 1482 1481 1482 1485 1482 1478 1478 1477 1477 1477 1478 1478 1478 1479 1479 1480 1480 1481 1482 1483 1484 1485 1487 1488 1489 1489 1490 1491 1492 1492 1493 1494 1495 1495 1496 1497 1498 1498
1499 1496 1499 1486 1477 1477 1478 1477 1477 1476 1475 1475 1475 1475 1475 1475 1475 1476 1476 1477 1477 1478 1478 1479 1480 1480 1482 1483 1484 1485 1486 1487 1487 1488 1489 1490 1491 1492 1492 1493 1493 1494 1494 1495
1501 1499 1493 1483 1476 1476 1477 1477 1474 1474 1473 1473 1473 1474 1474 1474 1474 1474 1475 1475 1475 1476 1476 1477 1477 1478 1479 1480 1481 1482 1483 1484 1485 1486 1487 1487 1488 1489 1489 1490 1490 1490 1491 1491
1499 1497 1496 1482 1474 1472 1475 1477 1472 1472 1472 1472 1473 1477 1474 1471 1472 1472 1473 1473 1473 1474 1474 1475 1475 1475 1476 1477 1478 1479 1480 1481 1482 1483 1484 1484 1485 1486 1486 1487 1487 1487 1488 1488
1497 1496 1488 1477 1472 1472 1482 1479 1470 1469 1469 1470 1470 1470 1470 1469 1469 1470 1470 1471 1471 1472 1472 1472 1473 1473 1473 1474 1475 1476 1477 1478 1479 1480 1481 1481 1482 1482 1483 1483 1484 1484 1485 1485
1495 1496 1490 1474 1473 1475 1474 1470 1468 1468 1467 1468 1467 1467 1467 1467 1467 1467 1467 1468 1469 1469 1469 1470 1470 1470 1471 1471 1472 1473 1474 1475 1476 1477 1478 1478 1478 1479 1479 1480 1480 1480 1481 1481
1484 1483 1475 1472 1471 1470 1469 1468 1467 1466 1466 1466 1466 1466 1465 1465 1465 1465 1465 1465 1466 1466 1466 1467 1467 1467 1468 1469 1469 1470 1471 1471 1472 1473 1474 1475 1475 1475 1476 1476 1476 1477 1477 1477
1479 1474 1471 1470 1469 1468 1467 1467 1466 1465 1465 1465 1464 1464 1464 1463 1463 1463 1463 1462 1462 1463 1463 1463 1464 1465 1465 1465 1466 1467 1467 1468 1469 1469 1470 1471 1472 1472 1472 1472 1473 1473 1474 1474
1476 1472 1469 1467 1466 1466 1465 1465 1464 1463 1463 1463 1462 1462 1461 1460 1460 1460 1460 1460 1460 1460 1460 1460 1461 1461 1462 1462 1462 1463 1464 1465 1465 1465 1466 1467 1468 1468 1469 1469 1470 1470 1470 1470
1473 1468 1468 1466 1464 1464 1464 1463 1462 1461 1460 1460 1460 1459 1459 1458 1458 1457 1457 1457 1457 1458 1458 1458 1458 1458 1459 1459 1459 1459 1460 1461 1461 1461 1462 1463 1464 1464 1465 1466 1466 1467 1467 1467
1466 1465 1465 1463 1463 1462 1462 1461 1460 1459 1458 1458 1458 1457 1457 1456 1456 1455 1455 1455 1455 1455 1455 1455 1455 1456 1456 1456 1456 1456 1456 1457 1457 1458 1458 1459 1459 1460 1460 1461 1462 1462 1463 1463
1463 1462 1461 1460 1460 1460 1460 1459 1459 1458 1457 1457 1456 1456 1455 1454 1453 1453 1452 1452 1453 1453 1453 1453 1453 1453 1453 1453 1453 1452 1453 1453 1454 1454 1454 1454 1455 1455 1456 1456 1456 1457 1458 1458
1459 1459 1459 1458 1457 1457 1457 1456 1456 1455 1454 1454 1454 1454 1453 1452 1451 1451 1451 1450 1450 1450 1450 1450 1450 1450 1451 1450 1450 1449 1449 1449 1450 1450 1450 1450 1451 1451 1451 1452 1452 1452 1452 1453
1456 1456 1455 1455 1454 1454 1454 1453 1453 1453 1452 1452 1452 1451 1451 1450 1449 1449 1448 1448 1447 1447 1447 1447 1447 1448 1447 1447 1447 1446 1446 1446 1446 1446 1446 1446 1446 1446 1447 1447 1447 1447 1447 1448
1453 1453 1453 1452 1452 1452 1451 1451 1451 1451 1450 1449 1449 1449 1448 1448 1447 1446 1446 1446 1445 1445 1445 1445 1445 1445 1445 1444 1444 1443 1443 1442 1442 1442 1442 1442 1442 1442 1442 1442 1442 1442 1442 1443
1450 1450 1450 1450 1450 1449 1449 1449 1449 1448 1448 1447 1447 1446 1446 1445 1444 1444 1443 1443 1443 1443 1443 1443 1442 1442 1441 1441 1440 1440 1439 1439 1438 1438 1437 1437 1437 1437 1437 1437 1437 1437 1438 1438
1448 1448 1448 1448 1448 1447 1447 1447 1446 1446 1445 1445 1444 1444 1443 1443 1442 1441 1441 1440 1439 1439 1439 1439 1439 1439 1438 1438 1437 1436 1436 1435 1435 1434 1434 1433 1432 1432 1432 1432 1432 1433 1433 1433
1446 1446 1445 1445 1445 1445 1444 1444 1444 1443 1443 1442 1442 1441 1441 1440 1439 1438 1438 1437 1437 1437 1437 1436 1436 1435 1435 1434 1434 1433 1432 1432 1431 1430 1430 1429 1428 1427 1427 1428 1428 1428 1428 1428
1444 1444 1443 1443 1442 1442 1442 1441 1441 1440 1440 1439 1439 1438 1438 1437 1437 1436 1435 1435 1435 1435 1434 1433 1432 1431 1431 1431 1430 1430 1429 1428 1428 1427 1426 1425 1424 1424 1424 1424 1424 1424 1423 1423
1442 1442 1441 1441 1440 1439 1439 1439 1438 1437 1437 1436 1436 1435 1435 1434 1434 1433 1433 1433 1432 1432 1431 1430 1430 1429 1428 1428 1427 1426 1426 1425 1424 1423 1422 1422 1421 1421 1420 1420 1420 1419 1419 1419
1440 1440 1439 1438 1438 1437 1436 1436 1435 1434 1434 1433 1433 1432 1431 1431 1431 1431 1430 1430 1429 1429 1428 1427 1427 1426 1426 1425 1424 1423 1423 1422 1421 1420 1420 1419 1418 1417 1417 1416 1416 1415 1415 1415
1438 1437 1436 1436 1435 1434 1433 1433 1432 1431 1431 1430 1430 1429 1429 1428 1428 1428 1428 1427 1427 1426 1425 1425 1424 1423 1422 1421 1421 1420 1420 1419 1418 1417 1416 1415 1415 1414 1413 1413 1412 1412 1411 1411
1435 1434 1434 1433 1432 1431 1430 1429 1429 1428 1427 1427 1427 1426 1426 1426 1425 1425 1424 1424 1423 1423 1422 1422 1421 1420 1419 1419 1418 1417 1417 1416 1415 1414 1413 1412 1412 1411 1410 1410 1409 1408 1408 1407
1432 1431 1431 1430 1429 1428 1427 1426 1425 1424 1424 1423 1423 1423 1423 1422 1422 1422 1421 1421 1420 1419 1419 1418 1418 1417 1416 1416 1415 1414 1414 1413 1412 1411 1410 1409 1409 1408 1407 1406 1405 1404 1404 1404
1428 1427 1427 1426 1425 1424 1423 1422 1422 1421 1421 1420 1419 1419 1419 1419 1419 1418 1418 1417 1417 1416 1416 1415 1415 1414 1414 1413 1412 1411 1410 1410 1409 1408 1407 1406 1405 1405 1404 1403 1402 1401 1401 1400